Time,TemperatureF,DewpointF,PressureIn,WindDirection,WindDirectionDegrees,WindSpeedMPH,WindSpeedGustMPH,Humidity,HourlyPrecipIn,Conditions,Clouds,dailyrainin,SoftwareType,DateUTC
2013-06-30 00:01:00,70.5,67.4,29.71,SE,135,0.0,0.0,90,-99.99,,,-99.99,VWS V14.01,2013-06-30 04:01:00,
2013-06-30 00:06:00,70.5,67.4,29.71,SSE,158,0.0,0.0,90,-99.99,,,-99.99,VWS V14.01,2013-06-30 04:06:00,
2013-06-30 00:11:00,70.5,67.4,29.71,SSE,158,0.0,0.0,90,-99.99,,,-99.99,VWS V14.01,2013-06-30 04:11:00,
2013-06-30 00:16:00,70.5,67.8,29.70,SSW,202,0.0,0.0,91,-99.99,,,-99.99,VWS V14.01,2013-06-30 04:16:00,
2013-06-30 00:21:00,70.5,67.8,29.71,SW,225,0.0,0.0,91,-99.99,,,-99.99,VWS V14.01,2013-06-30 04:21:00,
2013-06-30 00:26:00,70.5,67.8,29.70,ENE,68,0.0,0.0,91,-99.99,,,-99.99,VWS V14.01,2013-06-30 04:26:00,
2013-06-30 00:31:00,70.3,67.6,29.70,East,90,0.0,0.0,91,-99.99,,,-99.99,VWS V14.01,2013-06-30 04:31:00,
2013-06-30 00:36:00,70.5,67.8,29.70,SSE,158,0.0,0.0,91,-99.99,,,-99.99,VWS V14.01,2013-06-30 04:36:00,
2013-06-30 00:41:00,70.5,67.8,29.70,SE,135,0.0,0.0,91,-99.99,,,-99.99,VWS V14.01,2013-06-30 04:41:00,
2013-06-30 00:46:00,70.3,67.6,29.70,South,180,0.0,0.0,91,-99.99,,,-99.99,VWS V14.01,2013-06-30 04:46:00,
2013-06-30 00:51:00,70.3,67.6,29.70,West,270,0.0,0.0,91,-99.99,,,-99.99,VWS V14.01,2013-06-30 04:51:00,
2013-06-30 00:56:00,70.3,67.6,29.70,North,0,0.0,0.0,91,-99.99,,,-99.99,VWS V14.01,2013-06-30 04:56:00,
2013-06-30 01:01:00,70.3,67.6,29.70,ESE,112,1.3,1.3,91,-99.99,,,-99.99,VWS V14.01,2013-06-30 05:01:00,
2013-06-30 01:06:00,70.3,67.6,29.70,SE,135,0.0,0.0,91,-99.99,,,-99.99,VWS V14.01,2013-06-30 05:06:00,
2013-06-30 01:11:00,70.3,67.6,29.70,East,90,0.0,0.0,91,-99.99,,,-99.99,VWS V14.01,2013-06-30 05:11:00,
2013-06-30 01:16:00,70.5,67.8,29.70,SE,135,0.0,0.0,91,-99.99,,,-99.99,VWS V14.01,2013-06-30 05:16:00,
2013-06-30 01:21:00,70.5,67.8,29.71,ESE,112,0.0,0.0,91,-99.99,,,-99.99,VWS V14.01,2013-06-30 05:21:00,
2013-06-30 01:26:00,70.5,67.8,29.71,South,180,0.0,0.0,91,-99.99,,,-99.99,VWS V14.01,2013-06-30 05:26:00,
2013-06-30 01:31:00,70.5,67.8,29.71,SE,135,1.5,1.5,91,-99.99,,,-99.99,VWS V14.01,2013-06-30 05:31:00,
2013-06-30 01:36:00,70.5,67.8,29.71,East,90,0.0,0.0,91,-99.99,,,-99.99,VWS V14.01,2013-06-30 05:36:00,
2013-06-30 01:41:00,70.5,67.8,29.71,South,180,0.0,0.0,91,-99.99,,,-99.99,VWS V14.01,2013-06-30 05:41:00,
2013-06-30 01:46:00,70.5,67.8,29.70,SSW,202,0.0,0.0,91,-99.99,,,-99.99,VWS V14.01,2013-06-30 05:46:00,
2013-06-30 01:51:00,70.5,67.8,29.70,NNW,338,0.0,0.0,91,-99.99,,,-99.99,VWS V14.01,2013-06-30 05:51:00,
2013-06-30 01:56:00,70.5,67.8,29.70,NNE,22,0.0,0.0,91,-99.99,,,-99.99,VWS V14.01,2013-06-30 05:56:00,
2013-06-30 02:01:00,70.5,67.8,29.71,ENE,68,0.0,0.0,91,-99.99,,,-99.99,VWS V14.01,2013-06-30 06:01:00,
2013-06-30 02:06:00,70.5,67.8,29.70,ENE,68,0.0,0.0,91,-99.99,,,-99.99,VWS V14.01,2013-06-30 06:06:00,
2013-06-30 02:11:00,70.5,67.8,29.71,East,90,0.0,0.0,91,-99.99,,,-99.99,VWS V14.01,2013-06-30 06:11:00,
2013-06-30 02:16:00,70.5,67.8,29.71,SE,135,0.0,0.0,91,-99.99,,,-99.99,VWS V14.01,2013-06-30 06:16:00,
2013-06-30 02:21:00,70.5,67.8,29.71,SSW,202,0.0,0.0,91,-99.99,,,-99.99,VWS V14.01,2013-06-30 06:21:00,
2013-06-30 02:26:00,70.5,67.8,29.71,East,90,0.0,0.0,91,-99.99,,,-99.99,VWS V14.01,2013-06-30 06:26:00,
2013-06-30 02:31:00,70.5,67.8,29.71,South,180,1.3,1.3,91,-99.99,,,-99.99,VWS V14.01,2013-06-30 06:31:00,
2013-06-30 02:36:00,70.5,67.8,29.71,ENE,68,0.0,0.0,91,-99.99,,,-99.99,VWS V14.01,2013-06-30 06:36:00,
2013-06-30 02:41:00,70.5,67.8,29.71,South,180,0.0,0.0,91,-99.99,,,-99.99,VWS V14.01,2013-06-30 06:41:00,
2013-06-30 02:46:00,70.5,67.8,29.71,North,0,0.0,0.0,91,-99.99,,,-99.99,VWS V14.01,2013-06-30 06:46:00,
2013-06-30 02:51:00,70.5,67.8,29.71,SSE,158,0.0,0.0,91,-99.99,,,-99.99,VWS V14.01,2013-06-30 06:51:00,
2013-06-30 02:56:00,70.5,67.8,29.71,SSW,202,0.0,0.0,91,-99.99,,,-99.99,VWS V14.01,2013-06-30 06:56:00,
2013-06-30 03:01:00,70.5,67.8,29.71,NNE,22,0.0,0.0,91,-99.99,,,-99.99,VWS V14.01,2013-06-30 07:01:00,
2013-06-30 03:06:00,70.5,67.8,29.71,East,90,0.0,0.0,91,-99.99,,,-99.99,VWS V14.01,2013-06-30 07:06:00,
2013-06-30 03:11:00,70.5,67.8,29.71,NE,45,0.0,0.0,91,-99.99,,,-99.99,VWS V14.01,2013-06-30 07:11:00,
2013-06-30 03:16:00,70.5,67.8,29.71,East,90,0.0,0.0,91,-99.99,,,-99.99,VWS V14.01,2013-06-30 07:16:00,
2013-06-30 03:21:00,70.5,67.8,29.71,SE,135,0.0,0.0,91,-99.99,,,-99.99,VWS V14.01,2013-06-30 07:21:00,
2013-06-30 03:26:00,70.5,67.8,29.71,South,180,0.0,0.0,91,-99.99,,,-99.99,VWS V14.01,2013-06-30 07:26:00,
2013-06-30 03:31:00,70.5,67.8,29.71,SE,135,0.0,0.0,91,-99.99,,,-99.99,VWS V14.01,2013-06-30 07:31:00,
2013-06-30 03:36:00,70.5,67.8,29.71,ENE,68,0.6,0.6,91,-99.99,,,-99.99,VWS V14.01,2013-06-30 07:36:00,
2013-06-30 03:41:00,70.5,67.8,29.70,East,90,0.0,0.0,91,-99.99,,,-99.99,VWS V14.01,2013-06-30 07:41:00,
2013-06-30 03:46:00,70.3,67.6,29.71,ESE,112,0.0,0.0,91,-99.99,,,-99.99,VWS V14.01,2013-06-30 07:46:00,
2013-06-30 03:51:00,70.3,67.6,29.71,NW,315,0.0,0.0,91,-99.99,,,-99.99,VWS V14.01,2013-06-30 07:51:00,
2013-06-30 03:56:00,70.3,67.6,29.71,NNW,338,0.0,0.0,91,-99.99,,,-99.99,VWS V14.01,2013-06-30 07:56:00,
2013-06-30 04:01:00,70.3,67.6,29.71,WSW,248,0.0,0.0,91,-99.99,,,-99.99,VWS V14.01,2013-06-30 08:01:00,
2013-06-30 04:06:00,70.3,67.6,29.71,ESE,112,0.0,0.0,91,-99.99,,,-99.99,VWS V14.01,2013-06-30 08:06:00,
2013-06-30 04:11:00,70.3,67.6,29.71,West,270,0.0,0.0,91,-99.99,,,-99.99,VWS V14.01,2013-06-30 08:11:00,
2013-06-30 04:16:00,70.3,67.6,29.71,SW,225,0.0,0.0,91,-99.99,,,-99.99,VWS V14.01,2013-06-30 08:16:00,
2013-06-30 04:21:00,70.3,67.6,29.71,East,90,0.0,0.0,91,-99.99,,,-99.99,VWS V14.01,2013-06-30 08:21:00,
2013-06-30 04:26:00,70.3,67.6,29.72,SE,135,0.0,0.0,91,-99.99,,,-99.99,VWS V14.01,2013-06-30 08:26:00,
2013-06-30 04:31:00,70.3,67.6,29.72,South,180,0.0,0.0,91,-99.99,,,-99.99,VWS V14.01,2013-06-30 08:31:00,
2013-06-30 04:36:00,70.3,67.6,29.72,East,90,0.0,0.0,91,-99.99,,,-99.99,VWS V14.01,2013-06-30 08:36:00,
2013-06-30 04:41:00,70.3,67.6,29.72,SSE,158,1.3,1.3,91,-99.99,,,-99.99,VWS V14.01,2013-06-30 08:41:00,
2013-06-30 04:46:00,70.1,67.4,29.72,SSE,158,0.0,0.0,91,-99.99,,,-99.99,VWS V14.01,2013-06-30 08:46:00,
2013-06-30 04:51:00,70.3,67.6,29.72,East,90,0.0,0.0,91,-99.99,,,-99.99,VWS V14.01,2013-06-30 08:51:00,
2013-06-30 04:56:00,70.1,67.4,29.72,ESE,112,0.0,0.0,91,-99.99,,,-99.99,VWS V14.01,2013-06-30 08:56:00,
2013-06-30 05:01:00,70.1,67.4,29.72,ESE,112,0.0,0.0,91,-99.99,,,-99.99,VWS V14.01,2013-06-30 09:01:00,
2013-06-30 05:06:00,70.1,67.4,29.73,East,90,0.0,0.0,91,-99.99,,,-99.99,VWS V14.01,2013-06-30 09:06:00,
2013-06-30 05:11:00,70.1,67.4,29.73,South,180,0.0,0.0,91,-99.99,,,-99.99,VWS V14.01,2013-06-30 09:11:00,
2013-06-30 05:16:00,70.1,67.4,29.73,SSE,158,0.0,0.0,91,-99.99,,,-99.99,VWS V14.01,2013-06-30 09:16:00,
2013-06-30 05:21:00,70.1,67.4,29.73,SE,135,0.0,0.0,91,-99.99,,,-99.99,VWS V14.01,2013-06-30 09:21:00,
2013-06-30 05:26:00,70.1,67.4,29.73,North,0,0.0,0.0,91,-99.99,,,-99.99,VWS V14.01,2013-06-30 09:26:00,
2013-06-30 05:31:00,70.1,67.7,29.74,ESE,112,0.0,0.0,92,-99.99,,,-99.99,VWS V14.01,2013-06-30 09:31:00,
2013-06-30 05:36:00,70.1,67.7,29.75,ESE,112,0.0,0.0,92,-99.99,,,-99.99,VWS V14.01,2013-06-30 09:36:00,
2013-06-30 05:41:00,70.3,67.9,29.75,SSE,158,0.0,0.0,92,-99.99,,,-99.99,VWS V14.01,2013-06-30 09:41:00,
2013-06-30 05:46:00,70.3,67.9,29.75,East,90,0.0,0.0,92,-99.99,,,-99.99,VWS V14.01,2013-06-30 09:46:00,
2013-06-30 05:51:00,70.1,67.7,29.75,North,0,1.7,1.7,92,-99.99,,,-99.99,VWS V14.01,2013-06-30 09:51:00,
2013-06-30 05:56:00,70.1,67.7,29.75,East,90,0.0,0.0,92,-99.99,,,-99.99,VWS V14.01,2013-06-30 09:56:00,
2013-06-30 06:01:00,70.3,67.9,29.75,SW,225,0.0,0.0,92,-99.99,,,-99.99,VWS V14.01,2013-06-30 10:01:00,
2013-06-30 06:06:00,70.3,67.9,29.75,WSW,248,0.0,0.0,92,-99.99,,,-99.99,VWS V14.01,2013-06-30 10:06:00,
2013-06-30 06:11:00,70.3,67.9,29.75,SE,135,0.0,0.0,92,-99.99,,,-99.99,VWS V14.01,2013-06-30 10:11:00,
2013-06-30 06:16:00,70.3,67.9,29.75,SE,135,0.0,0.0,92,-99.99,,,-99.99,VWS V14.01,2013-06-30 10:16:00,
2013-06-30 06:21:00,70.3,67.9,29.76,SE,135,0.0,0.0,92,-99.99,,,-99.99,VWS V14.01,2013-06-30 10:21:00,
2013-06-30 06:26:00,70.3,67.9,29.76,South,180,0.0,0.0,92,-99.99,,,-99.99,VWS V14.01,2013-06-30 10:26:00,
2013-06-30 06:31:00,70.3,67.9,29.76,East,90,0.0,0.0,92,-99.99,,,-99.99,VWS V14.01,2013-06-30 10:31:00,
2013-06-30 06:36:00,70.5,68.1,29.77,NNW,338,0.0,0.0,92,-99.99,,,-99.99,VWS V14.01,2013-06-30 10:36:00,
2013-06-30 06:41:00,70.3,67.9,29.77,SSW,202,0.0,0.0,92,-99.99,,,-99.99,VWS V14.01,2013-06-30 10:41:00,
2013-06-30 06:46:00,70.5,68.1,29.77,SSE,158,0.0,0.0,92,-99.99,,,-99.99,VWS V14.01,2013-06-30 10:46:00,
2013-06-30 06:51:00,70.5,68.1,29.77,ESE,112,0.0,0.0,92,-99.99,,,-99.99,VWS V14.01,2013-06-30 10:51:00,
2013-06-30 06:56:00,70.5,68.1,29.77,SE,135,0.0,0.0,92,-99.99,,,-99.99,VWS V14.01,2013-06-30 10:56:00,
2013-06-30 07:01:00,70.7,68.3,29.77,South,180,0.0,0.0,92,-99.99,,,-99.99,VWS V14.01,2013-06-30 11:01:00,
2013-06-30 07:06:00,70.7,68.3,29.77,ESE,112,0.0,0.0,92,-99.99,,,-99.99,VWS V14.01,2013-06-30 11:06:00,
2013-06-30 07:11:00,70.5,68.1,29.78,ESE,112,0.0,0.0,92,-99.99,,,-99.99,VWS V14.01,2013-06-30 11:11:00,
2013-06-30 07:16:00,70.8,68.4,29.77,ESE,112,0.0,0.0,92,-99.99,,,-99.99,VWS V14.01,2013-06-30 11:16:00,
2013-06-30 07:21:00,70.8,68.4,29.78,ESE,112,0.0,0.0,92,-99.99,,,-99.99,VWS V14.01,2013-06-30 11:21:00,
2013-06-30 07:26:00,70.8,68.4,29.79,SE,135,0.0,0.0,92,-99.99,,,-99.99,VWS V14.01,2013-06-30 11:26:00,
2013-06-30 07:31:00,70.8,68.4,29.79,SE,135,0.0,0.0,92,-99.99,,,-99.99,VWS V14.01,2013-06-30 11:31:00,
2013-06-30 07:36:00,70.8,68.4,29.78,SE,135,0.0,0.0,92,-99.99,,,-99.99,VWS V14.01,2013-06-30 11:36:00,
2013-06-30 07:41:00,70.8,68.4,29.78,SE,135,0.0,0.0,92,-99.99,,,-99.99,VWS V14.01,2013-06-30 11:41:00,
2013-06-30 07:46:00,70.8,68.4,29.78,SE,135,0.0,0.0,92,-99.99,,,-99.99,VWS V14.01,2013-06-30 11:46:00,
2013-06-30 07:51:00,70.8,68.4,29.78,SE,135,0.0,0.0,92,-99.99,,,-99.99,VWS V14.01,2013-06-30 11:51:00,
2013-06-30 07:56:00,70.8,68.4,29.78,SE,135,0.0,0.0,92,-99.99,,,-99.99,VWS V14.01,2013-06-30 11:56:00,
2013-06-30 08:01:00,70.8,68.4,29.78,SE,135,0.0,0.0,92,-99.99,,,-99.99,VWS V14.01,2013-06-30 12:01:00,
2013-06-30 08:06:00,70.8,68.4,29.78,SE,135,0.0,0.0,92,-99.99,,,-99.99,VWS V14.01,2013-06-30 12:06:00,
2013-06-30 08:11:00,70.8,68.4,29.78,SE,135,0.0,0.0,92,-99.99,,,-99.99,VWS V14.01,2013-06-30 12:11:00,
2013-06-30 08:16:00,71.4,68.3,29.79,East,90,1.5,1.5,90,-99.99,,,-99.99,VWS V14.01,2013-06-30 12:16:00,
2013-06-30 08:21:00,71.4,68.3,29.79,East,90,1.5,1.5,90,-99.99,,,-99.99,VWS V14.01,2013-06-30 12:21:00,
2013-06-30 08:26:00,71.7,68.9,29.79,WSW,248,0.0,0.0,91,-99.99,,,-99.99,VWS V14.01,2013-06-30 12:26:00,
2013-06-30 08:31:00,71.7,68.9,29.79,SE,135,0.0,0.0,91,-99.99,,,-99.99,VWS V14.01,2013-06-30 12:31:00,
2013-06-30 08:36:00,72.1,69.3,29.80,SSE,158,0.0,0.0,91,-99.99,,,-99.99,VWS V14.01,2013-06-30 12:36:00,
2013-06-30 08:41:00,72.3,69.2,29.80,West,270,0.0,0.0,90,-99.99,,,-99.99,VWS V14.01,2013-06-30 12:41:00,
2013-06-30 08:46:00,72.5,69.4,29.80,East,90,0.0,0.0,90,-99.99,,,-99.99,VWS V14.01,2013-06-30 12:46:00,
2013-06-30 08:51:00,72.6,69.5,29.80,North,0,0.0,0.0,90,-99.99,,,-99.99,VWS V14.01,2013-06-30 12:51:00,
2013-06-30 08:56:00,72.8,69.4,29.80,SE,135,0.0,0.0,89,-99.99,,,-99.99,VWS V14.01,2013-06-30 12:56:00,
2013-06-30 09:01:00,72.8,69.4,29.80,SSE,158,0.0,0.0,89,-99.99,,,-99.99,VWS V14.01,2013-06-30 13:01:00,
2013-06-30 09:06:00,72.8,69.4,29.80,SE,135,0.0,0.0,89,-99.99,,,-99.99,VWS V14.01,2013-06-30 13:06:00,
2013-06-30 09:11:00,73.0,69.6,29.80,South,180,0.0,0.0,89,-99.99,,,-99.99,VWS V14.01,2013-06-30 13:11:00,
2013-06-30 09:16:00,73.2,69.8,29.80,SSE,158,0.0,0.0,89,-99.99,,,-99.99,VWS V14.01,2013-06-30 13:16:00,
2013-06-30 09:21:00,73.4,70.0,29.80,East,90,0.0,0.0,89,-99.99,,,-99.99,VWS V14.01,2013-06-30 13:21:00,
2013-06-30 09:26:00,73.5,69.7,29.80,NNE,22,0.0,0.0,88,-99.99,,,-99.99,VWS V14.01,2013-06-30 13:26:00,
2013-06-30 09:31:00,73.9,70.1,29.80,WNW,292,0.0,0.0,88,-99.99,,,-99.99,VWS V14.01,2013-06-30 13:31:00,
2013-06-30 09:36:00,74.1,70.3,29.80,West,270,0.0,0.0,88,-99.99,,,-99.99,VWS V14.01,2013-06-30 13:36:00,
2013-06-30 09:41:00,74.3,70.2,29.80,East,90,0.0,0.0,87,-99.99,,,-99.99,VWS V14.01,2013-06-30 13:41:00,
2013-06-30 09:46:00,74.4,70.3,29.80,WNW,292,0.0,0.0,87,-99.99,,,-99.99,VWS V14.01,2013-06-30 13:46:00,
2013-06-30 09:51:00,74.8,70.7,29.80,ENE,68,0.0,0.0,87,-99.99,,,-99.99,VWS V14.01,2013-06-30 13:51:00,
2013-06-30 09:56:00,75.0,70.9,29.81,SSE,158,0.0,0.0,87,-99.99,,,-99.99,VWS V14.01,2013-06-30 13:56:00,
2013-06-30 10:01:00,75.0,70.5,29.80,SSE,158,0.0,0.0,86,-99.99,,,-99.99,VWS V14.01,2013-06-30 14:01:00,
2013-06-30 10:06:00,75.0,70.5,29.80,WSW,248,0.0,0.0,86,-99.99,,,-99.99,VWS V14.01,2013-06-30 14:06:00,
2013-06-30 10:11:00,75.0,70.5,29.80,SSE,158,0.0,0.0,86,-99.99,,,-99.99,VWS V14.01,2013-06-30 14:11:00,
2013-06-30 10:16:00,75.0,70.5,29.80,ESE,112,0.0,0.0,86,-99.99,,,-99.99,VWS V14.01,2013-06-30 14:16:00,
2013-06-30 10:21:00,74.8,70.3,29.80,South,180,0.0,0.0,86,-99.99,,,-99.99,VWS V14.01,2013-06-30 14:21:00,
2013-06-30 10:26:00,75.0,70.9,29.80,ESE,112,0.0,0.0,87,-99.99,,,-99.99,VWS V14.01,2013-06-30 14:26:00,
2013-06-30 10:31:00,75.3,70.8,29.81,SE,135,0.0,0.0,86,-99.99,,,-99.99,VWS V14.01,2013-06-30 14:31:00,
2013-06-30 10:36:00,75.5,71.0,29.81,SSE,158,0.0,0.0,86,-99.99,,,-99.99,VWS V14.01,2013-06-30 14:36:00,
2013-06-30 10:41:00,75.7,71.2,29.81,ESE,112,0.0,0.0,86,-99.99,,,-99.99,VWS V14.01,2013-06-30 14:41:00,
2013-06-30 10:46:00,75.7,70.9,29.82,SSE,158,0.0,0.0,85,-99.99,,,-99.99,VWS V14.01,2013-06-30 14:46:00,
2013-06-30 10:51:00,75.7,70.9,29.82,SSE,158,0.0,0.0,85,-99.99,,,-99.99,VWS V14.01,2013-06-30 14:51:00,
2013-06-30 10:56:00,75.7,70.9,29.81,SSE,158,0.0,0.0,85,-99.99,,,-99.99,VWS V14.01,2013-06-30 14:56:00,
2013-06-30 11:01:00,76.2,71.4,29.81,East,90,0.0,0.0,85,-99.99,,,-99.99,VWS V14.01,2013-06-30 15:01:00,
2013-06-30 11:06:00,76.2,71.4,29.81,NNE,22,0.0,0.0,85,-99.99,,,-99.99,VWS V14.01,2013-06-30 15:06:00,
2013-06-30 11:11:00,76.6,71.4,29.81,ENE,68,1.7,1.7,84,-99.99,,,-99.99,VWS V14.01,2013-06-30 15:11:00,
2013-06-30 11:16:00,77.3,72.1,29.81,SE,135,0.0,0.0,84,-99.99,,,-99.99,VWS V14.01,2013-06-30 15:16:00,
2013-06-30 11:21:00,78.0,72.4,29.81,NNE,22,0.0,0.0,83,-99.99,,,-99.99,VWS V14.01,2013-06-30 15:21:00,
2013-06-30 11:26:00,78.9,73.3,29.81,East,90,0.0,0.0,83,-99.99,,,-99.99,VWS V14.01,2013-06-30 15:26:00,
2013-06-30 11:31:00,79.8,73.4,29.81,SE,135,1.7,1.7,81,-99.99,,,-99.99,VWS V14.01,2013-06-30 15:31:00,
2013-06-30 11:36:00,79.8,73.4,29.81,SE,135,1.7,1.7,81,-99.99,,,-99.99,VWS V14.01,2013-06-30 15:36:00,
2013-06-30 11:41:00,79.8,73.4,29.82,SE,135,1.7,1.7,81,-99.99,,,-99.99,VWS V14.01,2013-06-30 15:41:00,
2013-06-30 11:46:00,79.8,73.1,29.81,SSE,158,0.0,0.0,80,-99.99,,,-99.99,VWS V14.01,2013-06-30 15:46:00,
2013-06-30 11:51:00,79.8,73.1,29.81,SSE,158,0.0,0.0,80,-99.99,,,-99.99,VWS V14.01,2013-06-30 15:51:00,
2013-06-30 11:56:00,79.8,73.1,29.82,SSE,158,0.0,0.0,80,-99.99,,,-99.99,VWS V14.01,2013-06-30 15:56:00,
2013-06-30 12:01:00,79.8,73.1,29.82,SSE,158,0.0,0.0,80,-99.99,,,-99.99,VWS V14.01,2013-06-30 16:01:00,
2013-06-30 12:06:00,79.8,73.1,29.82,SSE,158,0.0,0.0,80,-99.99,,,-99.99,VWS V14.01,2013-06-30 16:06:00,
2013-06-30 12:11:00,79.8,73.1,29.82,SSE,158,0.0,0.0,80,-99.99,,,-99.99,VWS V14.01,2013-06-30 16:11:00,
2013-06-30 12:16:00,79.8,73.1,29.82,SSE,158,0.0,0.0,80,-99.99,,,-99.99,VWS V14.01,2013-06-30 16:16:00,
2013-06-30 12:21:00,79.8,73.1,29.82,SSE,158,0.0,0.0,80,-99.99,,,-99.99,VWS V14.01,2013-06-30 16:21:00,
2013-06-30 12:26:00,79.8,73.1,29.82,SSE,158,0.0,0.0,80,-99.99,,,-99.99,VWS V14.01,2013-06-30 16:26:00,
2013-06-30 12:31:00,79.8,73.1,29.82,SSE,158,0.0,0.0,80,-99.99,,,-99.99,VWS V14.01,2013-06-30 16:31:00,
2013-06-30 12:36:00,79.8,73.1,29.82,SSE,158,0.0,0.0,80,-99.99,,,-99.99,VWS V14.01,2013-06-30 16:36:00,
2013-06-30 12:41:00,79.8,73.1,29.82,SSE,158,0.0,0.0,80,-99.99,,,-99.99,VWS V14.01,2013-06-30 16:41:00,
2013-06-30 12:46:00,79.8,73.1,29.82,SSE,158,0.0,0.0,80,-99.99,,,-99.99,VWS V14.01,2013-06-30 16:46:00,
2013-06-30 12:51:00,79.8,73.1,29.82,SSE,158,0.0,0.0,80,-99.99,,,-99.99,VWS V14.01,2013-06-30 16:51:00,
2013-06-30 12:56:00,79.8,73.1,29.82,SSE,158,0.0,0.0,80,-99.99,,,-99.99,VWS V14.01,2013-06-30 16:56:00,
2013-06-30 13:01:00,79.8,73.1,29.82,SSE,158,0.0,0.0,80,-99.99,,,-99.99,VWS V14.01,2013-06-30 17:01:00,
2013-06-30 13:06:00,80.9,73.8,29.81,SSE,158,2.2,2.2,79,-99.99,,,-99.99,VWS V14.01,2013-06-30 17:06:00,
2013-06-30 13:11:00,81.6,74.1,29.82,SW,225,0.0,0.0,78,-99.99,,,-99.99,VWS V14.01,2013-06-30 17:11:00,
2013-06-30 13:16:00,82.5,73.8,29.81,ESE,112,0.0,0.0,75,-99.99,,,-99.99,VWS V14.01,2013-06-30 17:16:00,
2013-06-30 13:21:00,82.9,74.2,29.82,ESE,112,1.5,1.5,75,-99.99,,,-99.99,VWS V14.01,2013-06-30 17:21:00,
2013-06-30 13:26:00,83.4,74.2,29.82,SSW,202,0.0,0.0,74,-99.99,,,-99.99,VWS V14.01,2013-06-30 17:26:00,
2013-06-30 13:31:00,83.4,74.2,29.82,East,90,2.4,2.4,74,-99.99,,,-99.99,VWS V14.01,2013-06-30 17:31:00,
2013-06-30 13:36:00,83.8,74.2,29.81,SSE,158,1.3,1.3,73,-99.99,,,-99.99,VWS V14.01,2013-06-30 17:36:00,
2013-06-30 13:41:00,83.6,73.6,29.81,SE,135,2.2,2.2,72,-99.99,,,-99.99,VWS V14.01,2013-06-30 17:41:00,
2013-06-30 13:46:00,83.8,74.2,29.81,East,90,1.7,1.7,73,-99.99,,,-99.99,VWS V14.01,2013-06-30 17:46:00,
2013-06-30 13:51:00,84.2,74.6,29.82,ENE,68,0.0,0.0,73,-99.99,,,-99.99,VWS V14.01,2013-06-30 17:51:00,
2013-06-30 13:56:00,84.7,74.7,29.82,SSW,202,0.0,0.0,72,-99.99,,,-99.99,VWS V14.01,2013-06-30 17:56:00,
2013-06-30 14:01:00,84.7,74.7,29.82,SSW,202,0.0,0.0,72,-99.99,,,-99.99,VWS V14.01,2013-06-30 18:01:00,
2013-06-30 14:06:00,83.6,73.2,29.82,South,180,0.0,0.0,71,-99.99,,,-99.99,VWS V14.01,2013-06-30 18:06:00,
2013-06-30 14:11:00,83.6,73.2,29.82,South,180,0.0,0.0,71,-99.99,,,-99.99,VWS V14.01,2013-06-30 18:11:00,
2013-06-30 14:16:00,82.5,73.4,29.82,SSE,158,0.0,0.0,74,-99.99,,,-99.99,VWS V14.01,2013-06-30 18:16:00,
2013-06-30 14:21:00,82.2,73.5,29.83,ESE,112,0.0,0.0,75,-99.99,,,-99.99,VWS V14.01,2013-06-30 18:21:00,
2013-06-30 14:26:00,82.2,73.5,29.82,East,90,0.0,0.0,75,-99.99,,,-99.99,VWS V14.01,2013-06-30 18:26:00,
2013-06-30 14:31:00,82.2,73.5,29.82,SE,135,0.0,0.0,75,-99.99,,,-99.99,VWS V14.01,2013-06-30 18:31:00,
2013-06-30 14:36:00,82.2,73.5,29.83,SE,135,0.0,0.0,75,-99.99,,,-99.99,VWS V14.01,2013-06-30 18:36:00,
2013-06-30 14:41:00,82.2,73.5,29.83,SE,135,0.0,0.0,75,-99.99,,,-99.99,VWS V14.01,2013-06-30 18:41:00,
2013-06-30 14:46:00,82.2,73.5,29.83,SE,135,0.0,0.0,75,-99.99,,,-99.99,VWS V14.01,2013-06-30 18:46:00,
2013-06-30 14:51:00,82.2,73.5,29.83,SE,135,0.0,0.0,75,-99.99,,,-99.99,VWS V14.01,2013-06-30 18:51:00,
2013-06-30 14:56:00,82.2,73.5,29.83,SE,135,0.0,0.0,75,-99.99,,,-99.99,VWS V14.01,2013-06-30 18:56:00,
2013-06-30 15:01:00,82.2,73.5,29.83,SE,135,0.0,0.0,75,-99.99,,,-99.99,VWS V14.01,2013-06-30 19:01:00,
2013-06-30 15:06:00,82.2,73.5,29.83,SE,135,0.0,0.0,75,-99.99,,,-99.99,VWS V14.01,2013-06-30 19:06:00,
2013-06-30 15:11:00,82.2,73.5,29.83,SE,135,0.0,0.0,75,-99.99,,,-99.99,VWS V14.01,2013-06-30 19:11:00,
2013-06-30 15:16:00,82.2,73.5,29.83,SE,135,0.0,0.0,75,-99.99,,,-99.99,VWS V14.01,2013-06-30 19:16:00,
2013-06-30 15:21:00,82.2,73.5,29.83,SE,135,0.0,0.0,75,-99.99,,,-99.99,VWS V14.01,2013-06-30 19:21:00,
2013-06-30 15:26:00,82.2,73.5,29.83,SE,135,0.0,0.0,75,-99.99,,,-99.99,VWS V14.01,2013-06-30 19:26:00,
2013-06-30 15:31:00,81.6,72.9,29.83,NW,315,0.0,0.0,75,-99.99,,,-99.99,VWS V14.01,2013-06-30 19:31:00,
2013-06-30 15:36:00,81.6,72.9,29.83,East,90,1.7,1.7,75,-99.99,,,-99.99,VWS V14.01,2013-06-30 19:36:00,
2013-06-30 15:41:00,81.3,73.0,29.83,SSE,158,0.0,0.0,76,-99.99,,,-99.99,VWS V14.01,2013-06-30 19:41:00,
2013-06-30 15:46:00,80.9,72.6,29.83,North,0,1.1,1.1,76,-99.99,,,-99.99,VWS V14.01,2013-06-30 19:46:00,
2013-06-30 15:51:00,80.9,73.0,29.84,NNE,22,0.0,0.0,77,-99.99,,,-99.99,VWS V14.01,2013-06-30 19:51:00,
2013-06-30 15:56:00,80.9,73.0,29.83,East,90,0.0,0.0,77,-99.99,,,-99.99,VWS V14.01,2013-06-30 19:56:00,
2013-06-30 16:01:00,80.7,72.8,29.83,SE,135,1.7,1.7,77,-99.99,,,-99.99,VWS V14.01,2013-06-30 20:01:00,
2013-06-30 16:06:00,80.7,72.4,29.83,SE,135,0.0,0.0,76,-99.99,,,-99.99,VWS V14.01,2013-06-30 20:06:00,
2013-06-30 16:11:00,80.7,72.8,29.83,ENE,68,0.0,0.0,77,-99.99,,,-99.99,VWS V14.01,2013-06-30 20:11:00,
2013-06-30 16:16:00,80.9,73.0,29.83,South,180,0.0,0.0,77,-99.99,,,-99.99,VWS V14.01,2013-06-30 20:16:00,
2013-06-30 16:21:00,81.1,73.2,29.83,ESE,112,0.0,0.0,77,-99.99,,,-99.99,VWS V14.01,2013-06-30 20:21:00,
2013-06-30 16:26:00,81.3,73.0,29.84,ENE,68,1.3,1.3,76,-99.99,,,-99.99,VWS V14.01,2013-06-30 20:26:00,
2013-06-30 16:31:00,81.1,72.4,29.84,SE,135,1.7,1.7,75,-99.99,,,-99.99,VWS V14.01,2013-06-30 20:31:00,
2013-06-30 16:36:00,80.7,71.2,29.84,ENE,68,1.3,1.3,73,-99.99,,,-99.99,VWS V14.01,2013-06-30 20:36:00,
2013-06-30 16:41:00,80.4,71.0,29.84,East,90,0.0,0.0,73,-99.99,,,-99.99,VWS V14.01,2013-06-30 20:41:00,
2013-06-30 16:46:00,80.2,70.4,29.84,SSE,158,0.0,0.0,72,-99.99,,,-99.99,VWS V14.01,2013-06-30 20:46:00,
2013-06-30 16:51:00,79.8,70.0,29.84,South,180,0.0,0.0,72,-99.99,,,-99.99,VWS V14.01,2013-06-30 20:51:00,
2013-06-30 16:56:00,79.8,70.0,29.85,ENE,68,1.1,1.1,72,-99.99,,,-99.99,VWS V14.01,2013-06-30 20:56:00,
2013-06-30 17:01:00,79.5,70.1,29.85,East,90,0.0,0.0,73,-99.99,,,-99.99,VWS V14.01,2013-06-30 21:01:00,
2013-06-30 17:06:00,79.3,69.9,29.84,South,180,0.0,0.0,73,-99.99,,,-99.99,VWS V14.01,2013-06-30 21:06:00,
2013-06-30 17:11:00,79.3,69.9,29.85,SE,135,0.0,0.0,73,-99.99,,,-99.99,VWS V14.01,2013-06-30 21:11:00,
2013-06-30 17:16:00,79.3,70.3,29.85,ESE,112,0.0,0.0,74,-99.99,,,-99.99,VWS V14.01,2013-06-30 21:16:00,
2013-06-30 17:21:00,79.3,69.9,29.85,ESE,112,1.1,1.1,73,-99.99,,,-99.99,VWS V14.01,2013-06-30 21:21:00,
2013-06-30 17:26:00,79.1,69.7,29.84,South,180,0.0,0.0,73,-99.99,,,-99.99,VWS V14.01,2013-06-30 21:26:00,
2013-06-30 17:31:00,79.1,69.7,29.84,North,0,0.0,0.0,73,-99.99,,,-99.99,VWS V14.01,2013-06-30 21:31:00,
2013-06-30 17:36:00,78.9,69.9,29.85,SE,135,0.0,0.0,74,-99.99,,,-99.99,VWS V14.01,2013-06-30 21:36:00,
2013-06-30 17:41:00,78.9,69.5,29.84,South,180,0.0,0.0,73,-99.99,,,-99.99,VWS V14.01,2013-06-30 21:41:00,
2013-06-30 17:46:00,78.6,69.6,29.85,SE,135,0.6,0.6,74,-99.99,,,-99.99,VWS V14.01,2013-06-30 21:46:00,
2013-06-30 17:51:00,78.4,69.4,29.85,SSE,158,2.0,2.0,74,-99.99,,,-99.99,VWS V14.01,2013-06-30 21:51:00,
2013-06-30 17:56:00,78.0,69.4,29.85,SE,135,2.4,2.4,75,-99.99,,,-99.99,VWS V14.01,2013-06-30 21:56:00,
2013-06-30 18:01:00,78.0,69.1,29.85,ENE,68,0.0,0.0,74,-99.99,,,-99.99,VWS V14.01,2013-06-30 22:01:00,
2013-06-30 18:06:00,77.9,68.9,29.84,SSE,158,2.9,2.9,74,-99.99,,,-99.99,VWS V14.01,2013-06-30 22:06:00,
2013-06-30 18:11:00,77.7,69.2,29.85,SW,225,0.0,0.0,75,-99.99,,,-99.99,VWS V14.01,2013-06-30 22:11:00,
2013-06-30 18:16:00,77.5,69.3,29.85,SE,135,0.0,0.0,76,-99.99,,,-99.99,VWS V14.01,2013-06-30 22:16:00,
2013-06-30 18:21:00,77.3,69.2,29.85,East,90,0.0,0.0,76,-99.99,,,-99.99,VWS V14.01,2013-06-30 22:21:00,
2013-06-30 18:26:00,77.1,69.0,29.85,SSE,158,0.0,0.0,76,-99.99,,,-99.99,VWS V14.01,2013-06-30 22:26:00,
2013-06-30 18:31:00,77.0,69.2,29.85,ENE,68,0.0,0.0,77,-99.99,,,-99.99,VWS V14.01,2013-06-30 22:31:00,
2013-06-30 18:36:00,76.8,69.1,29.85,SSE,158,0.0,0.0,77,-99.99,,,-99.99,VWS V14.01,2013-06-30 22:36:00,
2013-06-30 18:41:00,76.8,69.4,29.85,ENE,68,0.0,0.0,78,-99.99,,,-99.99,VWS V14.01,2013-06-30 22:41:00,
2013-06-30 18:46:00,76.6,69.2,29.86,WNW,292,2.0,2.0,78,-99.99,,,-99.99,VWS V14.01,2013-06-30 22:46:00,
2013-06-30 18:51:00,76.4,69.0,29.86,SW,225,0.0,0.0,78,-99.99,,,-99.99,VWS V14.01,2013-06-30 22:51:00,
2013-06-30 18:56:00,76.2,69.2,29.87,SSE,158,0.0,0.0,79,-99.99,,,-99.99,VWS V14.01,2013-06-30 22:56:00,
2013-06-30 19:01:00,76.1,69.1,29.87,NNW,338,0.0,0.0,79,-99.99,,,-99.99,VWS V14.01,2013-06-30 23:01:00,
2013-06-30 19:06:00,75.9,68.9,29.86,WSW,248,0.6,0.6,79,-99.99,,,-99.99,VWS V14.01,2013-06-30 23:06:00,
2013-06-30 19:11:00,76.1,69.5,29.87,SE,135,0.0,0.0,80,-99.99,,,-99.99,VWS V14.01,2013-06-30 23:11:00,
2013-06-30 19:16:00,75.9,69.3,29.88,SSW,202,0.0,0.0,80,-99.99,,,-99.99,VWS V14.01,2013-06-30 23:16:00,
2013-06-30 19:21:00,75.9,69.3,29.88,West,270,0.0,0.0,80,-99.99,,,-99.99,VWS V14.01,2013-06-30 23:21:00,
2013-06-30 19:26:00,75.9,69.3,29.87,East,90,0.0,0.0,80,-99.99,,,-99.99,VWS V14.01,2013-06-30 23:26:00,
2013-06-30 19:31:00,75.7,69.1,29.88,SE,135,0.0,0.0,80,-99.99,,,-99.99,VWS V14.01,2013-06-30 23:31:00,
2013-06-30 19:36:00,75.7,69.5,29.88,ESE,112,1.1,1.1,81,-99.99,,,-99.99,VWS V14.01,2013-06-30 23:36:00,
2013-06-30 19:41:00,75.3,69.1,29.88,East,90,0.0,0.0,81,-99.99,,,-99.99,VWS V14.01,2013-06-30 23:41:00,
2013-06-30 19:46:00,75.0,68.8,29.88,ESE,112,0.0,0.0,81,-99.99,,,-99.99,VWS V14.01,2013-06-30 23:46:00,
2013-06-30 19:51:00,75.0,69.1,29.88,SSE,158,0.0,0.0,82,-99.99,,,-99.99,VWS V14.01,2013-06-30 23:51:00,
2013-06-30 19:56:00,75.0,69.1,29.88,ENE,68,0.0,0.0,82,-99.99,,,-99.99,VWS V14.01,2013-06-30 23:56:00,
2013-06-30 20:01:00,74.8,69.3,29.88,SSE,158,1.1,1.1,83,-99.99,,,-99.99,VWS V14.01,2013-07-01 00:01:00,
2013-06-30 20:06:00,74.4,68.9,29.88,NW,315,0.0,0.0,83,-99.99,,,-99.99,VWS V14.01,2013-07-01 00:06:00,
2013-06-30 20:11:00,74.4,68.9,29.88,SE,135,0.0,0.0,83,-99.99,,,-99.99,VWS V14.01,2013-07-01 00:11:00,
2013-06-30 20:16:00,74.4,69.3,29.88,SE,135,0.0,0.0,84,-99.99,,,-99.99,VWS V14.01,2013-07-01 00:16:00,
2013-06-30 20:21:00,74.4,69.3,29.88,ENE,68,0.0,0.0,84,-99.99,,,-99.99,VWS V14.01,2013-07-01 00:21:00,
2013-06-30 20:26:00,74.4,69.6,29.87,SSE,158,0.0,0.0,85,-99.99,,,-99.99,VWS V14.01,2013-07-01 00:26:00,
2013-06-30 20:31:00,74.4,69.6,29.88,SSE,158,0.0,0.0,85,-99.99,,,-99.99,VWS V14.01,2013-07-01 00:31:00,
2013-06-30 20:36:00,74.3,69.5,29.88,WSW,248,0.0,0.0,85,-99.99,,,-99.99,VWS V14.01,2013-07-01 00:36:00,
2013-06-30 20:41:00,74.1,69.3,29.88,SE,135,0.0,0.0,85,-99.99,,,-99.99,VWS V14.01,2013-07-01 00:41:00,
2013-06-30 20:46:00,74.1,69.3,29.88,SE,135,0.0,0.0,85,-99.99,,,-99.99,VWS V14.01,2013-07-01 00:46:00,
2013-06-30 20:51:00,74.1,69.3,29.89,SE,135,0.0,0.0,85,-99.99,,,-99.99,VWS V14.01,2013-07-01 00:51:00,
2013-06-30 20:56:00,74.1,69.3,29.89,SE,135,0.0,0.0,85,-99.99,,,-99.99,VWS V14.01,2013-07-01 00:56:00,
2013-06-30 21:01:00,73.7,68.9,29.89,SE,135,0.0,0.0,85,-99.99,,,-99.99,VWS V14.01,2013-07-01 01:01:00,
2013-06-30 21:06:00,73.7,68.9,29.89,SE,135,0.0,0.0,85,-99.99,,,-99.99,VWS V14.01,2013-07-01 01:06:00,
2013-06-30 21:11:00,73.5,69.1,29.90,SW,225,0.0,0.0,86,-99.99,,,-99.99,VWS V14.01,2013-07-01 01:11:00,
2013-06-30 21:16:00,73.5,69.1,29.90,SSE,158,0.0,0.0,86,-99.99,,,-99.99,VWS V14.01,2013-07-01 01:16:00,
2013-06-30 21:21:00,73.2,69.1,29.90,SSE,158,0.0,0.0,87,-99.99,,,-99.99,VWS V14.01,2013-07-01 01:21:00,
2013-06-30 21:26:00,73.2,69.1,29.89,SSE,158,0.0,0.0,87,-99.99,,,-99.99,VWS V14.01,2013-07-01 01:26:00,
2013-06-30 21:31:00,73.2,69.1,29.90,SE,135,0.0,0.0,87,-99.99,,,-99.99,VWS V14.01,2013-07-01 01:31:00,
2013-06-30 21:36:00,73.0,68.9,29.89,East,90,0.0,0.0,87,-99.99,,,-99.99,VWS V14.01,2013-07-01 01:36:00,
2013-06-30 21:41:00,73.0,68.9,29.90,SE,135,0.0,0.0,87,-99.99,,,-99.99,VWS V14.01,2013-07-01 01:41:00,
2013-06-30 21:46:00,72.8,69.0,29.90,South,180,0.0,0.0,88,-99.99,,,-99.99,VWS V14.01,2013-07-01 01:46:00,
2013-06-30 21:51:00,72.6,68.8,29.90,SE,135,0.0,0.0,88,-99.99,,,-99.99,VWS V14.01,2013-07-01 01:51:00,
2013-06-30 21:56:00,72.6,68.8,29.90,SSE,158,1.3,1.3,88,-99.99,,,-99.99,VWS V14.01,2013-07-01 01:56:00,
2013-06-30 22:01:00,72.5,68.8,29.90,ENE,68,0.0,0.0,88,-99.99,,,-99.99,VWS V14.01,2013-07-01 02:01:00,
2013-06-30 22:06:00,72.5,68.8,29.90,SSE,158,0.0,0.0,88,-99.99,,,-99.99,VWS V14.01,2013-07-01 02:06:00,
2013-06-30 22:11:00,72.3,68.6,29.90,SSE,158,0.0,0.0,88,-99.99,,,-99.99,VWS V14.01,2013-07-01 02:11:00,
2013-06-30 22:16:00,72.3,68.6,29.90,SSE,158,0.0,0.0,88,-99.99,,,-99.99,VWS V14.01,2013-07-01 02:16:00,
2013-06-30 22:21:00,72.3,68.6,29.90,SE,135,0.0,0.0,88,-99.99,,,-99.99,VWS V14.01,2013-07-01 02:21:00,
2013-06-30 22:26:00,72.3,68.9,29.90,ESE,112,0.0,0.0,89,-99.99,,,-99.99,VWS V14.01,2013-07-01 02:26:00,
2013-06-30 22:31:00,72.1,68.7,29.90,SE,135,0.0,0.0,89,-99.99,,,-99.99,VWS V14.01,2013-07-01 02:31:00,
2013-06-30 22:36:00,72.1,68.7,29.90,SSE,158,0.0,0.0,89,-99.99,,,-99.99,VWS V14.01,2013-07-01 02:36:00,
2013-06-30 22:41:00,71.9,68.5,29.90,West,270,0.0,0.0,89,-99.99,,,-99.99,VWS V14.01,2013-07-01 02:41:00,
2013-06-30 22:46:00,71.7,68.3,29.90,South,180,0.0,0.0,89,-99.99,,,-99.99,VWS V14.01,2013-07-01 02:46:00,
2013-06-30 22:51:00,71.7,68.6,29.91,South,180,0.0,0.0,90,-99.99,,,-99.99,VWS V14.01,2013-07-01 02:51:00,
2013-06-30 22:56:00,71.7,68.6,29.90,SE,135,0.0,0.0,90,-99.99,,,-99.99,VWS V14.01,2013-07-01 02:56:00,
2013-06-30 23:01:00,71.4,68.3,29.90,NE,45,0.0,0.0,90,-99.99,,,-99.99,VWS V14.01,2013-07-01 03:01:00,
2013-06-30 23:06:00,71.4,68.3,29.90,North,0,0.0,0.0,90,-99.99,,,-99.99,VWS V14.01,2013-07-01 03:06:00,
2013-06-30 23:11:00,71.4,68.3,29.90,ENE,68,0.0,0.0,90,-99.99,,,-99.99,VWS V14.01,2013-07-01 03:11:00,
2013-06-30 23:16:00,71.4,68.3,29.90,ESE,112,0.0,0.0,90,-99.99,,,-99.99,VWS V14.01,2013-07-01 03:16:00,
2013-06-30 23:21:00,71.4,68.3,29.91,NE,45,0.0,0.0,90,-99.99,,,-99.99,VWS V14.01,2013-07-01 03:21:00,
2013-06-30 23:26:00,71.4,68.3,29.90,North,0,0.0,0.0,90,-99.99,,,-99.99,VWS V14.01,2013-07-01 03:26:00,
2013-06-30 23:31:00,71.2,68.4,29.91,SSE,158,0.0,0.0,91,-99.99,,,-99.99,VWS V14.01,2013-07-01 03:31:00,
2013-06-30 23:36:00,71.2,68.4,29.90,ESE,112,0.0,0.0,91,-99.99,,,-99.99,VWS V14.01,2013-07-01 03:36:00,
2013-06-30 23:41:00,71.2,68.4,29.91,South,180,0.0,0.0,91,-99.99,,,-99.99,VWS V14.01,2013-07-01 03:41:00,
2013-06-30 23:46:00,71.2,68.4,29.91,SW,225,0.0,0.0,91,-99.99,,,-99.99,VWS V14.01,2013-07-01 03:46:00,
2013-06-30 23:51:00,71.2,68.4,29.91,NNW,338,0.0,0.0,91,-99.99,,,-99.99,VWS V14.01,2013-07-01 03:51:00,
2013-06-30 23:56:00,71.0,68.2,29.91,NE,45,0.0,0.0,91,-99.99,,,-99.99,VWS V14.01,2013-07-01 03:56:00,